Weather History for Williamtown, NW

Change the Weather History Date:

Tuesday, June 18, 2013

  Actual Average Record
Temperature  
Mean Temperature 54 °F -  
Max Temperature 63 °F - - ()
Min Temperature 46 °F - - ()
Degree Days  
Heating Degree Days 10    
Growing Degree Days 4 (Base 50)    
Moisture  
Dew Point 43 °F    
Average Humidity 68    
Maximum Humidity 94    
Minimum Humidity 31    
Precipitation  
Precipitation 0.08 in - - ()
Sea Level Pressure  
Sea Level Pressure 29.91 in    
Wind  
Wind Speed 10 mph ()    
Max Wind Speed 18 mph    
Max Gust Speed 24 mph    
Visibility 6.1 miles    
Events Rain    
T = Trace of Precipitation, MM = Missing Value Source: Averaged Metar Reports

Daily Weather History Graph

Daily Weather History Graph

Search for Another Location

Airport:

Trip Planner

Search our weather history database for the weather conditions in past years. The results will help you decide how hot, cold, wet, or windy it might be!

Date:

Astronomy

Jun. 18, 2013 Rise Set
Actual Time 6:53 AM AEST 4:53 PM AEST
Civil Twilight 6:26 AM AEST 5:20 PM AEST
Nautical Twilight 5:55 AM AEST 5:51 PM AEST
Astronomical Twilight 5:25 AM AEST 6:21 PM AEST
Moon 12:33 PM AEST (6/18) 12:45 AM AEST (6/18)
Length of Visible Light 10h 54m
Length of Day
9h 59m
Waxing Gibbous, 64% of the Moon is Illuminated
Jun 18
Waxing Gibbous
Jun 23
Full
Jun 30
Last Quarter
Jul 8
New
Jul 16
First Quarter

Hourly Weather History & Observations

Time (AEST) Temp. Windchill Dew Point Humidity Pressure Visibility Wind Dir Wind Speed Gust Speed Precip Events Conditions
12:00 AM 54 °F - 45 °F 63% 29.86 in - West 9.2 mph - -  
12:00 AM 53.6 °F - 44.6 °F 72% 29.86 in 6.2 mi West 9.2 mph - N/A   Overcast
12:30 AM 51.8 °F - 44.6 °F 76% 29.83 in 6.2 mi West 8.1 mph - N/A   Overcast
1:00 AM 50 °F - 44 °F 74% 29.86 in - West 9.2 mph - -  
1:00 AM 50.0 °F - 44.6 °F 82% 29.83 in 6.2 mi West 9.2 mph - N/A   Unknown
1:30 AM 50.0 °F - 44.6 °F 82% 29.86 in 6.2 mi West 10.4 mph - N/A   Unknown
2:00 AM 48.2 °F - 44.6 °F 87% 29.83 in 6.2 mi West 10.4 mph - N/A   Unknown
2:30 AM 48.2 °F - 44.6 °F 87% 29.86 in 6.2 mi WNW 9.2 mph - N/A   Unknown
3:00 AM 47 °F - 44 °F 83% 29.86 in - WNW 9.2 mph - -  
3:00 AM 48.2 °F - 42.8 °F 82% 29.86 in 6.2 mi WNW 9.2 mph - N/A   Unknown
3:30 AM 48.2 °F - 42.8 °F 82% 29.86 in 6.2 mi WNW 10.4 mph - N/A   Unknown
4:00 AM 48 °F - 43 °F 75% 29.86 in - WNW 13.8 mph - -  
4:00 AM 48.2 °F - 42.8 °F 82% 29.86 in 6.2 mi WNW 13.8 mph - N/A   Unknown
4:30 AM 48.2 °F - 42.8 °F 82% 29.86 in 6.2 mi WNW 11.5 mph - N/A   Unknown
5:00 AM 46.4 °F 41.1 °F 41.0 °F 81% 29.86 in 6.2 mi WNW 11.5 mph - N/A   Unknown
5:30 AM 48.2 °F - 41.0 °F 76% 29.86 in 6.2 mi WNW 16.1 mph - N/A   Unknown
6:00 AM 49 °F - 42 °F 68% 29.90 in 25 mi WNW 16.1 mph - -   Partly Cloudy
6:00 AM 48.2 °F - 41.0 °F 76% 29.89 in 6.2 mi WNW 16.1 mph - N/A   Mostly Cloudy
6:30 AM 48.2 °F - 41.0 °F 76% 29.89 in 6.2 mi WNW 13.8 mph - N/A   Scattered Clouds
7:00 AM 47 °F - 41 °F 73% 29.91 in - WNW 13.8 mph - -  
7:00 AM 48.2 °F - 41.0 °F 76% 29.89 in 6.2 mi WNW 13.8 mph - N/A   Partly Cloudy
7:30 AM 48.2 °F - 41.0 °F 76% 29.92 in 6.2 mi WNW 12.7 mph - N/A   Partly Cloudy
8:00 AM 50.0 °F - 41.0 °F 71% 29.92 in 6.2 mi WNW 13.8 mph - N/A   Partly Cloudy
8:30 AM 51.8 °F - 41.0 °F 67% 29.92 in 6.2 mi WNW 15.0 mph - N/A   Partly Cloudy
9:00 AM 53 °F - 41 °F 53% 29.94 in 25 mi WNW 15.0 mph - -   Partly Cloudy
9:00 AM 53.6 °F - 41.0 °F 62% 29.92 in 6.2 mi WNW 15.0 mph - N/A   Partly Cloudy
9:30 AM 55.4 °F - 41.0 °F 58% 29.95 in 6.2 mi West 18.4 mph - N/A   Partly Cloudy
10:00 AM 56 °F - 41 °F 46% 29.95 in - WNW 16.1 mph - -  
10:00 AM 57.2 °F - 41.0 °F 55% 29.95 in 6.2 mi WNW 16.1 mph - N/A   Partly Cloudy
10:30 AM 57.2 °F - 39.2 °F 51% 29.92 in 6.2 mi WNW 16.1 mph - N/A   Partly Cloudy
11:00 AM 60.8 °F - 41.0 °F 48% 29.92 in 6.2 mi West 15.0 mph - N/A   Partly Cloudy
11:30 AM 59.0 °F - 41.0 °F 51% 29.92 in 6.2 mi West 12.7 mph - N/A   Partly Cloudy
12:00 PM 60 °F - 41 °F 39% 29.92 in 25 mi WNW 15.0 mph - -   Partly Cloudy
12:00 PM 60.8 °F - 41.0 °F 48% 29.92 in 6.2 mi WNW 15.0 mph - N/A   Partly Cloudy
12:30 PM 60.8 °F - 41.0 °F 48% 29.89 in 6.2 mi WNW 15.0 mph - N/A   Partly Cloudy
1:00 PM 62 °F - 41 °F 34% 29.90 in - WNW 13.8 mph - -  
1:00 PM 62.6 °F - 41.0 °F 45% 29.89 in 6.2 mi WNW 13.8 mph - N/A   Partly Cloudy
1:30 PM 62.6 °F - 41.0 °F 45% 29.89 in 6.2 mi West 10.4 mph - N/A   Partly Cloudy
2:00 PM 62.6 °F - 41.0 °F 45% 29.86 in 6.2 mi West 9.2 mph - N/A   Partly Cloudy
2:30 PM 62.6 °F - 41.0 °F 45% 29.86 in 6.2 mi WSW 8.1 mph - N/A   Partly Cloudy
3:00 PM 63 °F - 40 °F 31% 29.89 in 25 mi West 9.2 mph - -   Partly Cloudy
3:00 PM 62.6 °F - 41.0 °F 45% 29.89 in 6.2 mi West 9.2 mph - N/A   Partly Cloudy
3:30 PM 62.6 °F - 39.2 °F 42% 29.89 in 6.2 mi West 11.5 mph - N/A   Partly Cloudy
4:00 PM 62 °F - 41 °F 35% 29.90 in - WSW 9.2 mph - -  
4:00 PM 62.6 °F - 41.0 °F 45% 29.89 in 6.2 mi WSW 9.2 mph - N/A   Partly Cloudy
4:30 PM 59.0 °F - 41.0 °F 51% 29.89 in 6.2 mi West 8.1 mph - N/A   Partly Cloudy
5:00 PM 55.4 °F - 41.0 °F 58% 29.92 in 6.2 mi West 6.9 mph - N/A   Partly Cloudy
5:30 PM 55.4 °F - 42.8 °F 63% 29.92 in - West 5.8 mph - N/A   Clear
6:00 PM 54 °F - 44 °F 60% 29.94 in - West 5.8 mph - -   Overcast
6:00 PM 53.6 °F - 44.6 °F 72% 29.92 in - West 5.8 mph - N/A   Clear
6:30 PM 55.4 °F - 46.4 °F 72% 29.95 in 6.2 mi West 6.9 mph - N/A Rain Light Rain Showers
7:00 PM 53 °F - 48 °F 78% 29.96 in - SW 5.8 mph - -  
7:00 PM 53.6 °F - 48.2 °F 82% 29.95 in 6.2 mi SW 5.8 mph - N/A   Mostly Cloudy
7:30 PM 51.8 °F - 46.4 °F 82% 29.95 in 6.2 mi West 6.9 mph - N/A   Mostly Cloudy
7:52 PM 53.6 °F - 50.0 °F 88% 29.98 in 2.5 mi SW 15.0 mph - N/A Rain Rain Showers
8:00 PM 53.6 °F - 50.0 °F 88% 29.98 in 6.2 mi SSW 11.5 mph 24.2 mph N/A Rain Light Rain Showers
8:11 PM 53.6 °F - 48.2 °F 82% 29.98 in 6.2 mi South 9.2 mph - N/A Rain Rain Showers
8:30 PM 53.6 °F - 48.2 °F 82% 29.98 in 6.2 mi SW 8.1 mph - N/A   Overcast
9:00 PM 52 °F - 48 °F 82% 29.99 in - West 5.8 mph - -   Overcast
9:00 PM 51.8 °F - 48.2 °F 88% 29.98 in 6.2 mi West 5.8 mph - N/A   Mostly Cloudy
9:30 PM 51.8 °F - 48.2 °F 88% 29.98 in 6.2 mi WNW 8.1 mph - N/A   Mostly Cloudy
10:00 PM 51 °F - 47 °F 83% 30.00 in - West 10.4 mph - -  
10:00 PM 50.0 °F - 48.2 °F 94% 29.98 in 6.2 mi West 10.4 mph - N/A   Mostly Cloudy
10:30 PM 50.0 °F - 46.4 °F 87% 30.01 in 6.2 mi WNW 9.2 mph - N/A   Mostly Cloudy
11:00 PM 50.0 °F - 46.4 °F 87% 30.01 in 6.2 mi West 8.1 mph - N/A   Overcast
11:30 PM 48.2 °F - 46.4 °F 93% 30.01 in 6.2 mi WNW 8.1 mph - N/A   Scattered Clouds